EW8241 Weather Reports


time (UTC)temp
C
wind
direction
speed
KPH
gust
KPH
rain 1hr
cm
rain 24hr
cm
rain mn
cm
humidity
%
barometer
mb
20260508105517 19 0.0 0.0 0.00 0.00 0.00 56 1012.0
20260508104537 19 0.0 0.0 0.00 0.00 0.00 57 1012.1
20260508103517 18 0.0 0.0 0.00 0.00 0.00 58 1012.3
20260508102517 18 0.0 0.0 0.00 0.00 0.00 58 1012.4
20260508101517 18 0.0 0.0 0.00 0.00 0.00 59 1012.3
20260508100557 18 0.0 1.6 0.00 0.00 0.00 59 1012.4
20260508095517 18 0.0 0.0 0.00 0.00 0.00 59 1012.3
20260508094517 17 0.0 0.0 0.00 0.00 0.00 60 1012.2
20260508093537 17 0.0 0.0 0.00 0.00 0.00 59 1012.2
20260508092517 18 0.0 0.0 0.00 0.00 0.00 59 1012.3
20260508091517 18 0.0 0.0 0.00 0.00 0.00 58 1012.1
20260508090517 18 0.0 0.0 0.00 0.00 0.00 57 1012.1
20260508085517 18 0.0 0.0 0.00 0.00 0.00 56 1012.0
20260508084517 18 0.0 0.0 0.00 0.00 0.00 57 1011.9
20260508083517 18 0.0 0.0 0.00 0.00 0.00 58 1011.8
20260508082517 18 0.0 0.0 0.00 0.00 0.00 59 1011.7
20260508081517 18 0.0 0.0 0.00 0.00 0.00 60 1011.7
20260508080517 17 0.0 0.0 0.00 0.00 0.00 62 1011.6
20260508075517 17 0.0 0.0 0.00 0.00 0.00 60 1011.6
20260508074517 17 0.0 0.0 0.00 0.00 0.00 61 1011.9
20260508073517 17 0.0 0.0 0.00 0.00 0.00 61 1011.8
20260508072517 17 0.0 0.0 0.00 0.00 0.00 62 1011.8
20260508071517 17 0.0 0.0 0.00 0.00 0.00 65 1011.9
20260508070517 16 0.0 0.0 0.00 0.00 0.00 67 1011.6
20260508065517 14 0.0 0.0 0.00 0.00 0.00 71 1011.5
20260508064516 13 0.0 8.0 0.00 0.00 0.00 72 1011.1
20260508063517 13 0.0 3.2 0.00 0.00 0.00 73 1010.9
20260508062517 13 0.0 0.0 0.00 0.00 0.00 74 1010.7
20260508061517 13 0.0 0.0 0.00 0.00 0.00 74 1010.6
20260508060517 13 0.0 0.0 0.00 0.00 0.00 76 1010.9
20260508055516 12 0.0 0.0 0.00 0.00 0.00 76 1010.8
20260508054516 13 0.0 0.0 0.00 0.00 0.00 75 1010.8
20260508053536 13 0.0 0.0 0.00 0.00 0.00 75 1010.7
20260508052516 12 0.0 0.0 0.00 0.00 0.00 76 1010.7
20260508051517 13 0.0 0.0 0.00 0.00 0.00 75 1010.6
20260508050516 13 0.0 0.0 0.00 0.00 0.00 75 1010.8
20260508045516 13 0.0 0.0 0.00 0.00 0.00 75 1010.8
20260508044536 13 0.0 0.0 0.00 0.00 0.00 75 1010.6
20260508043517 13 0.0 0.0 0.00 0.00 0.00 75 1011.3
20260508042516 13 0.0 0.0 0.00 0.00 0.00 75 1011.2
20260508041516 13 0.0 0.0 0.00 0.00 0.00 75 1011.1
20260508040516 13 0.0 0.0 0.00 0.00 0.00 75 1010.9
20260508035516 12 0.0 0.0 0.00 0.00 0.00 75 1011.1
20260508034517 13 0.0 0.0 0.00 0.00 0.00 75 1010.9
20260508033517 13 0.0 0.0 0.00 0.00 0.00 74 1010.9
20260508032516 13 0.0 0.0 0.00 0.00 0.00 73 1010.7
20260508031517 13 0.0 0.0 0.00 0.00 0.00 73 1010.8
20260508030517 13 0.0 0.0 0.00 0.00 0.00 72 1010.6
20260508025516 13 0.0 0.0 0.00 0.00 0.00 72 1010.7
20260508024516 13 0.0 0.0 0.00 0.00 0.00 71 1010.9
20260508023517 13 0.0 0.0 0.00 0.00 0.00 72 1010.5
20260508022517 13 0.0 0.0 0.00 0.00 0.00 71 1010.5
20260508021517 14 0.0 0.0 0.00 0.00 0.00 70 1010.5
20260508020516 13 0.0 0.0 0.00 0.00 0.00 71 1010.0
20260508015517 13 0.0 0.0 0.00 0.00 0.00 73 1010.0
20260508014516 13 0.0 0.0 0.00 0.00 0.00 71 1010.0
20260508013516 13 0.0 0.0 0.00 0.00 0.00 71 1010.5
20260508012516 14 0.0 0.0 0.00 0.00 0.00 70 1010.5
20260508011516 14 0.0 0.0 0.00 0.00 0.00 69 1011.0
20260508010516 14 0.0 0.0 0.00 0.00 0.00 69 1011.4
20260508005536 15 0.0 0.0 0.00 0.00 0.00 68 1011.5
20260508004516 15 0.0 0.0 0.00 0.00 0.00 67 1011.7
20260508003516 15 0.0 0.0 0.00 0.00 0.00 65 1011.8
20260508002516 15 0.0 0.0 0.00 0.00 0.00 63 1012.0
20260508001516 15 0.0 0.0 0.00 0.00 0.00 65 1012.0
20260508000516 15 0.0 0.0 0.00 0.00 0.00 66 1012.0
20260507235516 15 0.0 0.0 0.00 0.00 0.00 65 1011.9
20260507234516 15 0.0 0.0 0.00 0.00 0.00 64 1012.0
20260507233516 15 0.0 0.0 0.00 0.00 0.00 64 1011.8
20260507232516 15 0.0 0.0 0.00 0.00 0.00 65 1011.9
20260507231516 15 0.0 0.0 0.00 0.00 0.00 66 1011.9
20260507230536 15 0.0 0.0 0.00 0.00 0.00 64 1012.0
20260507225516 15 0.0 0.0 0.00 0.00 0.00 64 1011.9
20260507224536 15 0.0 0.0 0.00 0.00 0.00 64 1012.0
20260507223516 16 0.0 0.0 0.00 0.00 0.00 63 1012.2
20260507222516 16 0.0 0.0 0.00 0.00 0.00 62 1012.2
20260507221516 16 0.0 0.0 0.00 0.00 0.00 61 1012.4
20260507220516 16 0.0 0.0 0.00 0.00 0.00 61 1012.4
20260507215516 16 0.0 0.0 0.00 0.00 0.00 60 1012.3
20260507214516 16 0.0 0.0 0.00 0.00 0.00 57 1012.5
20260507213516 16 0.0 0.0 0.00 0.00 0.00 56 1012.3
20260507212516 16 0.0 0.0 0.00 0.00 0.00 56 1012.3
20260507211536 17 0.0 0.0 0.00 0.00 0.00 57 1012.2
20260507210536 17 0.0 3.2 0.00 0.00 0.00 56 1012.0
20260507205516 17 0.0 0.0 0.00 0.00 0.00 56 1011.9
20260507204536 17 0.0 0.0 0.00 0.00 0.00 57 1011.7
20260507203516 17 0.0 0.0 0.00 0.00 0.00 56 1011.3
20260507202516 17 0.0 0.0 0.00 0.00 0.00 57 1011.1
20260507201516 17 0.0 0.0 0.00 0.00 0.00 58 1011.1
20260507200516 17 0.0 12.9 0.00 0.00 0.00 57 1010.9
20260507195536 16 0.0 0.0 0.00 0.00 0.00 59 1010.6
20260507194516 16 0.0 0.0 0.00 0.00 0.00 61 1010.4
20260507193536 16 0.0 0.0 0.00 0.00 0.00 60 1010.3
20260507192516 16 0.0 0.0 0.00 0.00 0.00 58 1010.0
20260507191516 16 0.0 1.6 0.00 0.00 0.00 57 1009.9
20260507190516 16 0.0 0.0 0.00 0.00 0.00 56 1009.8
20260507185516 16 0.0 0.0 0.00 0.00 0.00 57 1009.8
20260507184516 16 0.0 0.0 0.00 0.00 0.00 58 1009.6
20260507183515 17 0.0 0.0 0.00 0.00 0.00 55 1009.3
20260507182515 17 0.0 0.0 0.00 0.00 0.00 53 1009.2
20260507181516 18 0.0 0.0 0.00 0.00 0.00 51 1009.3
20260507180516 18 0.0 0.0 0.00 0.00 0.00 50 1009.0
20260507175516 18 0.0 0.0 0.00 0.00 0.00 51 1008.9
20260507174516 18 0.0 0.0 0.00 0.00 0.00 53 1008.7
20260507173516 17 0.0 0.0 0.00 0.00 0.00 55 1008.6
20260507172536 17 0.0 0.0 0.00 0.00 0.00 59 1008.7
20260507171515 16 0.0 0.0 0.00 0.00 0.00 61 1008.7
20260507170515 16 0.0 1.6 0.00 0.00 0.00 67 1008.7
20260507165516 16 0.0 1.6 0.00 0.00 0.00 63 1008.5
20260507164515 17 0.0 6.4 0.00 0.00 0.00 57 1008.5
20260507163516 18 0.0 8.0 0.00 0.00 0.00 50 1008.4
20260507162535 20 0.0 0.0 0.00 0.00 0.00 46 1008.7
20260507161515 20 0.0 0.0 0.00 0.00 0.00 46 1008.5
20260507160516 21 0.0 0.0 0.00 0.00 0.00 46 1008.5
20260507155535 20 0.0 1.6 0.00 0.00 0.00 48 1008.4
20260507154516 20 0.0 1.6 0.00 0.00 0.00 48 1008.4
20260507153536 20 0.0 0.0 0.00 0.00 0.00 50 1008.5
20260507152516 19 0.0 0.0 0.00 0.00 0.00 52 1008.5
20260507151516 19 0.0 0.0 0.00 0.00 0.00 54 1008.5
20260507150536 19 0.0 0.0 0.00 0.00 0.00 53 1008.9
20260507145516 20 0.0 0.0 0.00 0.00 0.00 48 1009.0
20260507144515 20 0.0 0.0 0.00 0.00 0.00 46 1008.9
20260507143515 19 0.0 0.0 0.00 0.00 0.00 48 1009.1
20260507142515 18 0.0 8.0 0.00 0.00 0.00 51 1009.2
20260507141516 19 0.0 8.0 0.00 0.00 0.00 46 1009.5
20260507140516 19 0.0 1.6 0.00 0.00 0.00 45 1009.5
20260507135516 18 0.0 3.2 0.00 0.00 0.00 45 1009.6
20260507134515 17 0.0 9.7 0.00 0.00 0.00 48 1009.7
20260507133515 16 203 1.6 14.5 0.00 0.00 0.00 48 1009.8
20260507132515 16 113 6.4 25.7 0.00 0.00 0.00 47 1009.7
20260507131516 19 0.0 1.6 0.00 0.00 0.00 45 1009.8
20260507130515 20 0.0 0.0 0.00 0.00 0.00 45 1009.9
20260507125515 21 0.0 0.0 0.00 0.00 0.00 41 1009.8
20260507124556 21 0.0 0.0 0.00 0.00 0.00 40 1010.0
20260507123515 21 0.0 0.0 0.00 0.00 0.00 41 1010.1
20260507122515 21 0.0 0.0 0.00 0.00 0.00 42 1010.2
20260507121516 21 0.0 0.0 0.00 0.00 0.00 42 1010.3
20260507120515 20 0.0 0.0 0.00 0.00 0.00 43 1010.5
20260507115515 20 0.0 0.0 0.00 0.00 0.00 45 1010.5
20260507114556 19 0.0 0.0 0.00 0.00 0.00 48 1010.7
20260507113536 19 0.0 0.0 0.00 0.00 0.00 46 1010.6
20260507112517 20 0.0 0.0 0.00 0.00 0.00 46 1010.8
20260507111537 19 0.0 0.0 0.00 0.00 0.00 48 1010.9
20260507110517 20 0.0 0.0 0.00 0.00 0.00 47 1011.1